KC9NPJ-13 Weather Reports


time (UTC)temp
C
wind
direction
speed
KPH
gust
KPH
rain 1hr
cm
rain 24hr
cm
rain mn
cm
humidity
%
barometer
mb
20260510083340 14 213 0.0 0.0 0.03 0.03 0.03 91 1012.9
20260510082840 14 213 0.0 0.0 0.03 0.03 0.03 91 1012.7
20260510082340 14 213 0.0 0.0 0.03 0.03 0.03 91 1012.8
20260510081840 14 213 0.0 0.0 0.03 0.03 0.03 91 1012.8
20260510081340 14 213 0.0 0.0 0.03 0.03 0.03 90 1013.0
20260510080840 15 213 0.0 0.0 0.03 0.03 0.03 90 1013.0
20260510080340 15 213 0.0 1.6 0.03 0.03 0.03 90 1013.0
20260510075840 15 247 0.0 1.6 0.03 0.03 0.03 89 1013.2
20260510075340 15 18 0.0 0.0 0.03 0.03 0.03 89 1013.0
20260510074840 15 17 0.0 1.6 0.03 0.03 0.03 89 1013.3
20260510074340 15 293 0.0 0.0 0.03 0.03 0.03 87 1013.2
20260510073840 15 293 0.0 0.0 0.00 0.00 0.00 86 1013.4
20260510073340 15 293 0.0 0.0 0.00 0.00 0.00 86 1013.2
20260510072840 15 39 0.0 0.0 0.00 0.00 0.00 86 1013.2
20260510072340 15 39 0.0 0.0 0.00 0.00 0.00 86 1013.3
20260510071840 16 304 0.0 0.0 0.00 0.00 0.00 84 1013.4
20260510071340 16 286 0.0 1.6 0.00 0.00 0.00 84 1013.5
20260510070840 16 338 0.0 0.0 0.00 0.00 0.00 83 1013.2
20260510070340 16 339 1.6 3.2 0.00 0.00 0.00 82 1013.0
20260510065840 16 0 1.6 8.0 0.00 0.00 0.00 82 1013.0
20260510065340 16 7 3.2 8.0 0.00 0.00 0.00 83 1013.0
20260510064840 16 346 6.4 8.0 0.00 0.00 0.00 83 1013.0
20260510064340 16 334 8.0 16.1 0.00 0.00 0.00 83 1013.2
20260510063840 16 348 9.7 14.5 0.00 0.23 0.00 83 1013.2
20260510063340 16 344 9.7 16.1 0.00 0.23 0.00 83 1013.3
20260510062840 16 348 12.9 19.3 0.00 0.23 0.00 83 1013.2
20260510062340 16 358 11.3 19.3 0.00 0.23 0.00 82 1013.2
20260510061840 16 342 11.3 16.1 0.00 0.23 0.00 83 1013.3
20260510061340 16 3 12.9 19.3 0.00 0.23 0.00 82 1013.0
20260510060840 16 350 12.9 24.1 0.00 0.23 0.00 82 1013.0
20260510060340 16 355 9.7 20.9 0.00 0.23 0.00 84 1012.8
20260510055840 16 348 4.8 19.3 0.00 0.23 0.00 89 1012.6
20260510055340 15 332 4.8 11.3 0.00 0.23 0.00 93 1012.5
20260510054840 15 330 3.2 14.5 0.00 0.23 0.00 96 1012.5
20260510054340 14 347 0.0 3.2 0.00 0.23 0.00 95 1011.9
20260510053840 14 282 0.0 0.0 0.00 0.51 0.00 95 1011.5
20260510053340 14 282 0.0 0.0 0.00 0.51 0.00 95 1011.4
20260510052840 14 282 0.0 0.0 0.00 0.51 0.00 95 1011.3
20260510052341 14 282 0.0 0.0 0.00 0.51 0.58 95 1011.4
20260510051841 14 282 0.0 0.0 0.00 0.51 0.58 95 1011.4
20260510051341 14 282 0.0 0.0 0.00 0.51 0.58 95 1011.4
20260510050841 14 282 0.0 0.0 0.00 0.51 0.58 94 1011.4
20260510050341 14 282 0.0 0.0 0.00 0.51 0.58 94 1011.4
20260510045841 14 282 0.0 0.0 0.00 0.51 0.58 94 1011.4
20260510045341 14 282 0.0 0.0 0.00 0.51 0.58 94 1011.4
20260510044841 14 282 0.0 0.0 0.00 0.51 0.58 94 1011.3
20260510044341 14 282 0.0 0.0 0.00 0.51 0.58 94 1011.4
20260510043841 14 282 0.0 0.0 0.00 0.61 0.58 94 1011.5
20260510043341 14 282 0.0 0.0 0.00 0.61 0.58 94 1011.5
20260510042841 14 282 0.0 0.0 0.00 0.61 0.58 94 1011.5
20260510042341 14 282 0.0 0.0 0.00 0.61 0.58 93 1011.5
20260510041841 14 282 0.0 0.0 0.00 0.61 0.58 93 1011.5
20260510041341 14 282 0.0 0.0 0.00 0.61 0.58 93 1011.5
20260510040841 14 282 0.0 0.0 0.00 0.61 0.58 93 1011.5
20260510040341 15 282 0.0 0.0 0.00 0.61 0.58 93 1011.5
20260510035841 15 282 0.0 0.0 0.00 0.61 0.58 93 1011.6
20260510035341 15 282 0.0 0.0 0.00 0.61 0.58 93 1011.5
20260510034841 15 282 0.0 0.0 0.00 0.61 0.58 93 1011.5
20260510034341 15 282 0.0 0.0 0.00 0.61 0.58 93 1011.6
20260510033841 15 282 0.0 0.0 0.00 0.61 0.58 93 1011.5
20260510033341 15 282 0.0 0.0 0.00 0.61 0.58 93 1011.6
20260510032841 15 282 0.0 0.0 0.00 0.61 0.58 93 1011.6
20260510032341 15 282 0.0 0.0 0.00 0.61 0.58 92 1011.5
20260510031841 15 282 0.0 0.0 0.00 0.61 0.58 92 1011.5
20260510031341 15 282 0.0 0.0 0.00 0.61 0.58 92 1011.5
20260510030841 16 282 0.0 0.0 0.00 0.61 0.58 92 1011.5
20260510030341 16 282 0.0 0.0 0.00 0.61 0.58 92 1011.5
20260510025841 16 282 0.0 0.0 0.00 0.61 0.58 92 1011.5
20260510025341 16 282 0.0 0.0 0.00 0.61 0.58 91 1011.4
20260510024841 16 282 0.0 0.0 0.00 0.61 0.58 91 1011.3
20260510024341 16 282 0.0 0.0 0.00 0.61 0.58 91 1011.3
20260510023841 16 282 0.0 0.0 0.00 0.61 0.58 91 1011.3
20260510023341 16 282 0.0 0.0 0.00 0.61 0.58 91 1011.2
20260510022841 16 282 0.0 0.0 0.00 0.61 0.58 91 1011.2
20260510022341 16 282 0.0 0.0 0.00 0.61 0.58 90 1011.0
20260510021841 16 282 0.0 0.0 0.00 0.61 0.58 90 1011.0
20260510021341 16 282 0.0 0.0 0.00 0.61 0.58 89 1011.0
20260510020841 16 282 0.0 0.0 0.00 0.61 0.58 88 1010.9
20260510020341 16 282 0.0 0.0 0.00 0.61 0.58 87 1010.9
20260510015841 16 282 0.0 0.0 0.00 0.61 0.58 88 1010.8
20260510015341 16 282 0.0 0.0 0.00 0.61 0.58 87 1010.6
20260510014841 17 282 0.0 1.6 0.00 0.61 0.58 87 1010.5
20260510014342 17 282 0.0 0.0 0.00 0.61 0.58 86 1010.5
20260510013841 17 282 0.0 0.0 0.00 0.61 0.58 86 1010.5
20260510013341 17 282 0.0 1.6 0.00 0.61 0.58 85 1010.3
20260510012841 18 282 0.0 0.0 0.00 0.61 0.58 84 1010.3
20260510012341 18 282 0.0 1.6 0.00 0.61 0.58 83 1010.3
20260510011841 18 282 0.0 0.0 0.00 0.61 0.58 82 1010.1
20260510011341 18 282 0.0 0.0 0.00 0.61 0.58 80 1010.1
20260510010841 19 282 0.0 1.6 0.00 0.61 0.58 80 1010.0
20260510010341 19 281 0.0 0.0 0.00 0.61 0.58 79 1009.9
20260510005841 20 281 0.0 0.0 0.00 0.61 0.58 78 1009.8
20260510005341 20 281 0.0 0.0 0.00 0.61 0.58 76 1009.8
20260510004841 20 281 0.0 0.0 0.00 0.61 0.58 74 1009.6
20260510004341 21 281 0.0 0.0 0.00 0.61 0.58 75 1009.5
20260510003841 21 281 0.0 0.0 0.00 0.61 0.58 73 1009.5
20260510003341 21 281 0.0 0.0 0.00 0.61 0.58 73 1009.4
20260510002841 22 281 0.0 0.0 0.00 0.61 0.58 69 1009.3
20260510002341 22 281 0.0 1.6 0.00 0.61 0.58 67 1009.1
20260510001841 22 281 0.0 0.0 0.00 0.61 0.58 64 1009.1
20260510001341 22 281 0.0 0.0 0.00 0.61 0.58 64 1009.1
20260510000841 23 281 0.0 0.0 0.00 0.61 0.58 63 1009.3
20260510000342 23 281 0.0 0.0 0.00 0.61 0.58 62 1009.2
20260509235841 23 281 0.0 0.0 0.00 0.61 0.58 62 1009.1
20260509235342 23 281 0.0 1.6 0.00 0.61 0.58 60 1009.2
20260509234842 24 283 0.0 0.0 0.00 0.61 0.58 59 1009.2
20260509234342 24 236 0.0 0.0 0.00 0.61 0.58 59 1009.1
20260509233842 24 236 0.0 1.6 0.00 0.61 0.58 60 1009.1
20260509233342 25 217 0.0 1.6 0.00 0.61 0.58 60 1009.0
20260509232842 25 268 0.0 1.6 0.00 0.61 0.58 57 1008.9
20260509232342 25 312 0.0 3.2 0.00 0.61 0.58 56 1009.1
20260509231842 25 327 0.0 1.6 0.00 0.61 0.58 58 1009.2
20260509231342 25 261 0.0 3.2 0.00 0.61 0.58 57 1009.1
20260509230842 25 113 0.0 1.6 0.00 0.61 0.58 57 1009.0
20260509230342 25 313 0.0 1.6 0.00 0.61 0.58 56 1009.0
20260509225842 25 315 1.6 4.8 0.00 0.61 0.58 56 1008.8
20260509225342 25 339 1.6 4.8 0.00 0.61 0.58 56 1008.9
20260509224842 25 312 1.6 4.8 0.00 0.61 0.58 54 1008.8
20260509224342 25 317 1.6 6.4 0.00 0.61 0.58 55 1008.7
20260509223842 25 286 1.6 4.8 0.00 0.61 0.58 56 1008.8
20260509223342 26 335 1.6 6.4 0.00 0.61 0.58 52 1008.8
20260509222842 26 309 0.0 4.8 0.00 0.61 0.58 52 1008.8
20260509222342 26 276 0.0 3.2 0.00 0.61 0.58 54 1008.9
20260509221842 25 308 1.6 4.8 0.00 0.61 0.58 54 1008.9
20260509221342 25 314 1.6 8.0 0.00 0.61 0.58 55 1008.9
20260509220842 25 321 3.2 4.8 0.00 0.61 0.58 57 1008.9
20260509220342 25 315 3.2 9.7 0.00 0.61 0.58 54 1008.9
20260509215842 25 313 3.2 6.4 0.00 0.61 0.58 57 1008.9
20260509215342 25 315 1.6 9.7 0.00 0.61 0.58 53 1009.0
20260509214842 26 327 1.6 4.8 0.00 0.61 0.58 56 1009.0
20260509214342 26 325 1.6 9.7 0.00 0.61 0.58 55 1008.9
20260509213842 26 318 0.0 4.8 0.00 0.61 0.58 54 1008.9
20260509213342 26 321 1.6 3.2 0.00 0.61 0.58 55 1009.1
20260509212842 26 213 1.6 11.3 0.00 0.61 0.58 57 1009.1
20260509212342 26 200 0.0 1.6 0.00 0.61 0.58 60 1009.1
20260509211842 26 324 0.0 6.4 0.00 0.61 0.58 58 1008.9
20260509211342 26 309 0.0 1.6 0.00 0.61 0.58 55 1009.0
20260509210842 26 303 1.6 11.3 0.00 0.61 0.58 57 1009.1
20260509210342 25 305 1.6 8.0 0.00 0.61 0.58 59 1009.2
20260509205842 25 304 3.2 14.5 0.00 0.61 0.58 61 1009.2
20260509205342 25 299 3.2 16.1 0.00 0.61 0.58 62 1009.2
20260509204842 25 222 1.6 16.1 0.00 0.61 0.58 59 1009.1
20260509204342 25 306 1.6 4.8 0.00 0.61 0.58 61 1009.1
20260509203842 25 100 3.2 8.0 0.00 0.61 0.58 61 1009.2
20260509203342 25 290 1.6 17.7 0.00 0.61 0.58 57 1009.3
20260509202842 25 275 1.6 3.2 0.00 0.61 0.58 58 1009.4
20260509202342 25 306 1.6 16.1 0.00 0.61 0.58 60 1009.3
20260509201842 25 269 1.6 16.1 0.00 0.61 0.58 57 1009.3
20260509201342 25 296 1.6 11.3 0.00 0.61 0.58 61 1009.3
20260509200842 25 215 1.6 9.7 0.00 0.61 0.58 58 1009.3
20260509200342 25 321 3.2 11.3 0.00 0.61 0.58 62 1009.3
20260509195842 24 308 3.2 14.5 0.00 0.61 0.58 63 1009.3
20260509195342 24 217 3.2 11.3 0.00 0.61 0.58 61 1009.4
20260509194844 23 316 4.8 14.5 0.00 0.61 0.58 62 1009.4
20260509194342 23 249 6.4 14.5 0.00 0.61 0.58 66 1009.5
20260509193842 23 232 6.4 14.5 0.00 0.61 0.58 64 1009.5
20260509193342 23 246 8.0 16.1 0.00 0.61 0.58 66 1009.7
20260509192842 23 275 9.7 17.7 0.00 0.61 0.58 68 1009.7
20260509192342 23 242 8.0 17.7 0.00 0.61 0.58 64 1009.7
20260509191842 22 258 8.0 14.5 0.00 0.61 0.58 67 1009.7
20260509191342 22 251 8.0 14.5 0.00 0.61 0.58 65 1009.8
20260509190842 22 246 8.0 16.1 0.00 0.61 0.58 68 1009.8
20260509190342 22 240 8.0 14.5 0.00 0.61 0.58 68 1010.0
20260509185842 22 256 6.4 16.1 0.00 0.61 0.58 69 1010.0
20260509185342 22 225 6.4 16.1 0.00 0.61 0.58 68 1010.0
20260509184842 22 219 8.0 12.9 0.00 0.61 0.58 70 1010.1
20260509184343 22 320 8.0 16.1 0.00 0.61 0.58 73 1010.1
20260509183842 22 227 6.4 14.5 0.00 0.61 0.58 72 1010.1
20260509183342 21 283 6.4 12.9 0.00 0.61 0.58 75 1010.1
20260509182842 21 251 6.4 14.5 0.00 0.61 0.58 73 1010.1
20260509182343 21 238 6.4 14.5 0.00 0.61 0.58 73 1010.1
20260509181843 21 254 6.4 12.9 0.00 0.61 0.58 74 1010.2
20260509181343 21 259 4.8 12.9 0.00 0.61 0.58 76 1010.2
20260509180843 21 200 6.4 11.3 0.00 0.61 0.58 76 1010.1
20260509180343 21 229 8.0 16.1 0.00 0.61 0.58 76 1010.3
20260509175843 21 248 4.8 14.5 0.00 0.61 0.58 76 1010.3
20260509175343 21 236 4.8 9.7 0.00 0.61 0.58 74 1010.4
20260509174843 21 246 6.4 14.5 0.00 0.61 0.58 77 1010.4
20260509174343 20 275 4.8 14.5 0.00 0.61 0.58 75 1010.4
20260509173843 21 271 4.8 12.9 0.00 0.61 0.58 74 1010.5
20260509173343 20 265 3.2 11.3 0.00 0.61 0.58 76 1010.6
20260509172843 20 238 3.2 11.3 0.00 0.61 0.58 74 1010.7
20260509172343 20 328 4.8 9.7 0.00 0.61 0.58 75 1010.8
20260509171843 20 249 6.4 11.3 0.00 0.61 0.58 74 1010.8
20260509171343 20 225 6.4 16.1 0.00 0.61 0.58 75 1010.9
20260509170843 20 228 4.8 12.9 0.00 0.61 0.58 76 1010.9
20260509170343 20 195 4.8 16.1 0.00 0.61 0.58 75 1010.9
20260509165843 20 229 4.8 16.1 0.00 0.61 0.58 77 1010.9
20260509165343 19 302 6.4 19.3 0.00 0.61 0.58 76 1011.0
20260509164843 20 249 3.2 17.7 0.00 0.61 0.58 78 1011.0
20260509164343 19 235 3.2 11.3 0.00 0.61 0.58 80 1011.1
20260509163843 19 184 4.8 8.0 0.00 0.61 0.58 77 1011.0
20260509163343 18 238 6.4 11.3 0.00 0.61 0.58 78 1011.1
20260509162843 18 226 6.4 14.5 0.00 0.61 0.58 78 1011.1
20260509162343 18 217 3.2 12.9 0.00 0.61 0.58 78 1011.1
20260509161843 19 242 1.6 11.3 0.00 0.61 0.58 78 1011.0
20260509161343 18 319 4.8 11.3 0.00 0.61 0.58 82 1011.0
20260509160843 18 283 3.2 14.5 0.00 0.61 0.58 78 1011.0
20260509160343 18 280 1.6 4.8 0.00 0.61 0.58 80 1011.0
20260509155843 18 231 3.2 12.9 0.00 0.61 0.58 81 1010.9
20260509155343 18 327 3.2 11.3 0.00 0.61 0.58 84 1011.0
20260509154843 17 318 4.8 9.7 0.00 0.61 0.58 84 1010.9
20260509154343 17 255 3.2 11.3 0.00 0.61 0.58 83 1010.9
20260509153843 16 236 1.6 8.0 0.00 0.61 0.58 83 1010.9
20260509153343 16 150 4.8 8.0 0.00 0.61 0.58 84 1010.8
20260509152843 16 347 6.4 11.3 0.00 0.61 0.58 84 1010.6
20260509152343 16 290 4.8 11.3 0.00 0.61 0.58 86 1010.5
20260509151843 16 237 4.8 9.7 0.00 0.61 0.58 86 1010.5
20260509151343 16 252 3.2 9.7 0.00 0.61 0.58 87 1010.5
20260509150843 16 260 1.6 8.0 0.00 0.61 0.58 88 1010.5
20260509150343 16 244 3.2 8.0 0.00 0.61 0.58 90 1010.4
20260509145843 15 238 4.8 9.7 0.00 0.61 0.58 88 1010.3
20260509145343 15 234 3.2 8.0 0.00 0.61 0.58 89 1010.2
20260509144843 15 269 3.2 8.0 0.00 0.61 0.58 89 1010.2
20260509144343 15 270 1.6 6.4 0.00 0.61 0.58 89 1010.3
20260509143843 15 279 0.0 1.6 0.00 0.61 0.58 92 1010.3
20260509143346 15 263 0.0 3.2 0.00 0.61 0.58 92 1010.3
20260509142843 15 167 1.6 3.2 0.00 0.61 0.58 92 1010.3
20260509142343 15 259 1.6 11.3 0.00 0.61 0.58 91 1010.3
20260509141843 14 257 1.6 3.2 0.00 0.61 0.58 93 1010.2
20260509141343 14 249 1.6 8.0 0.00 0.61 0.58 93 1010.4
20260509140843 14 252 1.6 6.4 0.00 0.61 0.58 93 1010.4
20260509140343 14 240 1.6 3.2 0.00 0.61 0.58 94 1010.6
20260509135843 14 215 3.2 8.0 0.00 0.61 0.58 94 1010.5
20260509135343 14 237 1.6 6.4 0.00 0.61 0.58 94 1010.4
20260509134843 14 266 0.0 6.4 0.00 0.61 0.58 95 1010.4
20260509134343 14 268 0.0 8.0 0.00 0.61 0.58 95 1010.4
20260509133843 13 198 0.0 3.2 0.00 0.61 0.58 95 1010.4
20260509133343 13 251 1.6 3.2 0.00 0.61 0.58 95 1010.3
20260509132843 13 242 1.6 6.4 0.00 0.61 0.58 95 1010.4
20260509132343 13 229 1.6 4.8 0.00 0.61 0.58 95 1010.2
20260509131843 13 236 0.0 4.8 0.00 0.61 0.58 95 1010.2
20260509131343 13 225 0.0 0.0 0.00 0.61 0.58 96 1010.2
20260509131041 13 225 0.0 0.0 0.00 0.61 0.58 96 1010.2
20260509130843 13 225 0.0 0.0 0.00 0.61 0.58 96 1010.2
20260509130343 13 250 0.0 0.0 0.00 0.61 0.58 96 1010.2
20260509125843 13 321 0.0 0.0 0.00 0.61 0.58 96 1010.3
20260509125344 13 321 0.0 0.0 0.00 0.61 0.58 96 1010.2
20260509124844 12 318 1.6 4.8 0.00 0.61 0.58 95 1010.1
20260509124344 12 247 0.0 3.2 0.00 0.61 0.58 95 1010.0
20260509123844 12 279 0.0 1.6 0.00 0.61 0.58 95 1010.0
20260509123344 12 298 0.0 1.6 0.00 0.61 0.58 96 1010.0
20260509122844 12 277 0.0 1.6 0.00 0.61 0.58 96 1010.1
20260509122344 12 276 1.6 1.6 0.00 0.61 0.58 96 1010.0
20260509121844 12 261 1.6 4.8 0.00 0.61 0.58 95 1010.0
20260509121344 12 275 1.6 4.8 0.00 0.61 0.58 95 1010.0
20260509120844 12 234 1.6 4.8 0.00 0.61 0.58 95 1010.0
20260509120344 12 207 1.6 4.8 0.00 0.61 0.58 95 1009.9
20260509115844 12 207 0.0 3.2 0.00 0.61 0.58 95 1009.8
20260509115344 12 258 0.0 1.6 0.00 0.61 0.58 96 1009.9
20260509114844 12 269 0.0 0.0 0.00 0.61 0.58 96 1009.7
20260509114344 11 269 0.0 0.0 0.00 0.61 0.58 96 1009.7
20260509113844 11 269 0.0 0.0 0.00 0.61 0.58 96 1009.7
20260509113344 11 260 0.0 0.0 0.00 0.61 0.58 96 1009.7
20260509112844 11 260 0.0 1.6 0.00 0.61 0.58 96 1009.7
20260509112344 11 215 0.0 1.6 0.00 0.61 0.58 96 1009.7
20260509111844 10 223 0.0 0.0 0.00 0.61 0.58 96 1009.5
20260509111344 10 223 0.0 0.0 0.00 0.61 0.58 96 1009.5
20260509110844 10 223 0.0 0.0 0.00 0.61 0.58 96 1009.4
20260509110344 10 223 0.0 0.0 0.00 0.61 0.58 96 1009.4
20260509105844 10 223 0.0 0.0 0.00 0.61 0.58 96 1009.5
20260509105344 10 223 0.0 1.6 0.00 0.61 0.58 96 1009.5
20260509104844 10 238 0.0 0.0 0.00 0.61 0.58 96 1009.6
20260509104344 10 264 0.0 0.0 0.00 0.61 0.58 96 1009.5
20260509103844 10 273 0.0 0.0 0.00 0.61 0.58 96 1009.3
20260509103344 10 273 0.0 0.0 0.00 0.61 0.58 96 1009.2
20260509102844 10 273 0.0 0.0 0.00 0.61 0.58 95 1009.1
20260509102344 10 273 0.0 0.0 0.00 0.61 0.58 95 1009.1
20260509101844 10 273 0.0 0.0 0.00 0.61 0.58 96 1009.2
20260509101344 10 273 0.0 0.0 0.00 0.61 0.58 96 1009.2
20260509100844 10 273 0.0 0.0 0.00 0.61 0.58 96 1009.1
20260509100344 10 273 0.0 0.0 0.00 0.61 0.58 96 1009.1
20260509095844 10 273 0.0 0.0 0.00 0.61 0.58 95 1009.1
20260509095344 10 273 0.0 0.0 0.00 0.61 0.58 95 1009.2
20260509094844 10 273 0.0 0.0 0.00 0.61 0.58 95 1009.1
20260509094344 10 273 0.0 0.0 0.00 0.61 0.58 95 1009.1
20260509093844 10 273 0.0 0.0 0.00 0.61 0.58 95 1009.2
20260509093344 10 273 0.0 0.0 0.00 0.61 0.58 95 1009.2
20260509092844 11 273 0.0 0.0 0.00 0.61 0.58 95 1009.2
20260509092344 11 273 0.0 0.0 0.00 0.61 0.58 95 1009.1
20260509091844 11 273 0.0 0.0 0.00 0.61 0.58 95 1009.0
20260509091344 11 273 0.0 0.0 0.00 0.61 0.58 95 1008.9
20260509090844 11 273 0.0 0.0 0.00 0.61 0.58 95 1008.9
20260509090344 11 273 0.0 0.0 0.00 0.61 0.58 95 1008.8
20260509085844 11 273 0.0 0.0 0.00 0.61 0.58 94 1008.8
20260509085344 11 273 0.0 0.0 0.00 0.61 0.58 95 1008.8
20260509084844 11 248 0.0 3.2 0.00 0.61 0.58 95 1008.7
20260509084344 12 220 0.0 3.2 0.00 0.61 0.58 95 1008.7
20260509083844 12 211 0.0 1.6 0.00 0.61 0.58 95 1008.5